Wind_Speed
9 11 16 26 33 40 40 39 37 37 33 32 31 27 25 19 16 13 15 24 24 23 23 27 61 60 61 59 60 56 53 49 43 46 38 35 34 32 29 28 24 23 22
10 16 23 30 37 39 41 39 33 35 32 28 28 28 28 24 19 15 14 17 34 30 14 9 48 62 64 62 64 60 55 50 49 45 46 38 32 27 26 27 24 23 22
16 25 31 35 33 36 43 36 34 34 31 30 31 31 29 26 22 17 16 15 29 27 19 23 26 66 66 66 66 62 58 56 51 47 41 32 21 37 32 29 26 22 22
26 34 34 37 37 38 42 40 35 33 31 31 30 30 30 31 25 22 20 17 29 38 22 26 12 66 68 69 67 63 59 58 52 48 44 33 45 45 28 32 30 25 23
34 38 36 39 34 38 42 39 37 36 32 30 29 29 32 32 30 26 25 20 24 35 25 29 26 45 70 68 67 65 61 57 51 52 46 33 40 43 47 41 35 29 25
36 37 40 41 42 45 40 37 37 36 35 28 30 30 30 30 31 29 27 25 23 35 30 19 38 29 66 67 71 64 64 58 53 51 44 41 44 47 48 44 40 36 30
42 42 43 42 42 43 40 38 37 36 35 34 33 33 33 30 31 31 29 29 25 28 36 18 28 28 53 69 68 64 64 54 52 50 43 40 38 44 45 48 44 40 33
47 48 47 45 44 41 39 40 42 40 33 35 35 35 34 35 36 35 32 32 29 26 34 30 28 24 44 68 65 63 63 53 52 51 44 40 36 41 43 49 50 40 34
47 45 46 44 41 41 41 39 40 42 39 34 35 37 36 36 39 37 34 35 31 27 29 34 24 30 39 62 64 63 61 54 53 49 45 40 35 36 39 42 45 43 34
45 48 48 45 44 41 41 37 38 41 40 37 38 37 37 37 37 37 37 37 34 30 31 34 28 27 46 52 62 61 59 55 53 50 46 41 35 33 36 36 41 42 34
49 50 50 47 43 43 40 39 39 40 42 38 37 40 39 38 36 37 41 39 37 33 33 34 29 33 43 50 58 62 60 56 53 51 46 41 36 33 34 34 36 39 38
51 52 52 48 46 40 47 47 43 38 39 38 38 38 38 36 36 38 42 41 40 36 36 35 34 34 45 52 56 59 58 56 54 52 47 42 37 33 32 30 30 34 36
55 53 49 46 44 46 44 43 43 41 37 36 37 37 38 36 37 37 40 42 41 40 38 41 35 40 52 55 56 55 57 59 54 52 47 42 37 36 34 30 27 31 33
52 54 50 51 49 47 46 43 41 39 33 32 35 37 37 35 36 35 38 41 41 42 41 42 43 38 50 56 53 53 57 58 57 54 47 42 36 36 34 32 27 31 32
54 53 56 56 54 49 45 42 40 34 32 29 31 36 35 33 34 35 36 37 41 42 43 45 41 31 55 56 50 54 56 55 58 55 48 41 36 32 32 35 32 32 33
58 60 58 56 55 51 48 43 42 36 26 31 30 31 32 32 34 34 36 34 42 40 43 46 42 33 50 53 47 57 57 54 57 56 50 43 38 34 33 32 32 26 31
61 61 58 56 57 54 52 48 42 31 25 25 29 28 30 32 34 32 33 34 39 37 45 48 43 34 56 54 52 58 54 53 56 55 52 45 40 37 35 33 31 26 24
60 60 58 59 58 56 54 49 40 30 21 21 27 27 29 30 32 32 34 33 36 38 44 47 42 33 54 55 57 56 53 49 50 53 52 46 42 40 37 35 34 32 29
59 57 56 56 56 54 52 46 34 18 14 18 24 25 28 29 30 32 34 33 36 34 38 44 41 30 56 56 57 55 53 48 49 52 53 48 43 41 38 37 36 35 32
62 61 59 55 54 56 50 33 21 5 10 16 22 24 26 28 30 32 33 32 33 36 35 32 40 36 55 55 56 60 53 52 50 51 51 49 45 40 38 37 36 38 37
59 59 57 52 52 52 44 26 12 5 8 15 19 22 25 29 29 29 30 31 30 32 39 33 33 44 49 52 56 56 53 50 46 48 49 48 45 41 39 36 36 38 37
63 62 60 59 54 51 42 28 13 5 11 17 19 23 24 30 21 27 26 27 32 33 35 39 37 47 45 52 54 54 51 51 46 45 46 46 47 44 40 37 37 39 38
57 58 57 55 54 55 43 30 14 6 15 22 22 28 31 17 20 24 26 35 27 36 33 36 43 45 47 54 55 56 54 51 44 39 40 42 46 45 43 39 37 39 41
56 58 56 54 56 55 45 29 18 10 15 21 22 31 20 21 19 21 29 36 22 36 38 36 41 45 47 50 56 57 52 47 44 39 37 39 44 46 46 44 41 41 42
56 55 55 52 54 55 49 30 15 11 11 14 20 22 21 21 23 22 36 44 24 31 36 39 43 45 50 52 54 56 55 54 48 42 36 40 46 49 49 47 44 45 46
54 56 54 56 57 56 54 40 26 15 13 11 14 15 16 18 25 18 18 36 30 25 33 33 40 39 41 41 44 56 57 53 49 44 40 43 46 50 52 51 48 48 48
Wind_Direction
330 324 325 313 314 317 322 324 318 318 314 310 307 302 296 284 274 269 249 235 247 258 250 162 192 187 182 178 181 180 180 171 177 157 157 158 161 162 161 165 164 159 161
329 337 323 321 321 318 316 321 316 315 311 308 304 301 297 287 276 265 268 236 229 250 256 231 184 190 183 181 183 185 177 175 178 166 154 144 156 166 168 166 165 169 166
349 341 332 332 331 316 317 318 310 310 306 298 298 298 292 283 274 258 257 240 227 245 254 221 184 188 188 181 187 188 185 177 177 174 162 148 164 157 164 169 173 179 176
340 337 330 332 331 317 317 318 311 307 301 295 292 292 291 286 274 261 251 244 217 230 248 211 225 184 184 190 191 191 192 187 181 175 180 172 178 168 162 171 173 186 187
337 333 327 328 320 318 319 316 310 307 302 294 287 283 283 282 276 264 256 247 233 218 245 199 212 179 187 195 196 192 193 196 191 182 186 187 180 177 171 163 168 175 190
332 325 324 322 321 321 316 313 305 301 302 294 284 279 280 279 275 265 254 248 234 214 222 207 206 199 188 196 197 198 197 199 193 188 192 195 188 185 177 170 171 175 178
326 320 319 316 314 315 313 306 302 295 295 290 282 277 271 271 270 266 251 247 241 221 215 215 191 203 186 199 199 198 198 199 195 198 199 202 201 195 191 180 171 173 173
325 320 316 313 309 308 306 303 302 298 290 287 280 272 268 263 262 262 253 248 242 226 209 214 199 201 187 197 197 201 201 202 199 200 202 204 206 199 202 196 185 173 178
316 311 311 309 308 304 299 295 295 294 286 282 277 275 270 265 261 258 251 244 240 230 218 201 205 213 195 193 199 201 201 201 201 201 204 204 205 204 206 204 202 198 180
314 313 312 310 308 304 300 290 286 286 284 274 270 268 266 262 260 253 246 240 235 228 215 194 215 207 197 190 197 203 203 201 201 201 202 204 205 206 207 208 206 209 210
314 313 311 310 308 305 302 295 291 285 281 271 262 262 262 259 256 250 240 237 234 225 209 191 198 205 194 193 195 204 202 201 201 201 202 204 205 203 204 206 208 212 213
312 310 311 311 308 309 306 302 292 283 277 272 265 257 255 250 246 244 236 233 231 223 210 196 189 204 209 201 194 200 202 204 200 200 200 202 202 204 201 204 204 208 212
311 311 311 311 312 309 304 299 293 287 281 269 260 253 248 243 240 237 232 231 229 222 212 204 185 195 204 201 197 202 209 205 203 200 200 200 201 203 200 202 200 201 206
310 314 315 315 315 312 307 302 297 295 285 269 256 249 242 237 235 233 229 229 226 221 212 200 184 195 210 204 200 203 208 205 205 201 199 200 201 205 200 201 201 199 201
317 317 318 318 317 314 311 306 301 294 288 271 253 244 237 232 230 231 225 226 221 218 211 203 193 195 201 199 200 205 208 208 203 202 198 201 202 205 206 201 200 200 199
317 319 319 319 319 317 314 310 307 298 282 262 250 238 231 224 223 226 218 221 219 217 210 203 192 195 199 200 205 206 206 210 204 202 197 200 200 202 205 207 209 210 203
317 317 319 319 319 319 317 313 314 308 283 251 236 231 221 216 217 220 211 217 213 213 207 203 195 185 198 199 203 202 207 207 209 206 199 198 199 201 201 205 208 210 211
317 319 322 321 322 323 326 324 319 305 276 241 222 218 207 208 213 210 206 213 210 211 200 199 194 192 194 195 199 206 208 209 211 209 206 202 200 201 201 202 204 208 211
320 321 323 324 325 328 331 329 328 300 239 218 205 204 201 204 205 201 200 208 207 209 202 202 200 197 193 200 195 199 204 208 210 212 210 206 204 204 203 204 206 208 213
327 327 330 332 334 342 342 347 347 275 215 197 194 194 193 198 194 194 198 205 210 200 208 196 198 202 192 200 199 199 202 204 207 212 212 210 207 207 207 208 210 210 209
331 335 335 336 341 348 356 353 358 269 188 177 180 184 189 189 184 192 197 203 202 202 197 200 195 197 194 195 198 200 202 206 208 212 212 210 209 211 211 212 214 217 210
341 343 339 341 350 353 355 2 19 248 181 173 172 176 180 172 184 190 196 193 192 200 198 188 190 193 197 197 199 202 207 208 209 214 217 214 210 209 211 213 216 216 212
340 345 344 346 353 5 9 22 66 170 162 156 167 166 164 168 179 191 190 177 192 194 198 196 185 188 197 199 200 202 206 213 210 218 219 216 210 209 209 214 218 214 213
344 347 350 352 356 6 17 33 75 105 143 158 155 159 159 170 179 189 184 182 188 199 195 197 184 194 198 198 199 201 206 211 211 214 215 218 212 211 210 210 214 214 217
357 354 354 354 359 8 24 48 69 115 137 152 164 164 173 174 172 177 182 196 202 194 198 198 197 197 201 204 200 198 206 208 209 208 209 215 211 209 209 208 210 211 215
4 2 2 3 8 12 26 41 64 114 139 150 162 182 182 181 171 175 193 203 211 206 208 207 208 211 215 207 206 206 208 208 207 207 210 214 214 210 209 210 208 212 212
Height
1516 1516 1514 1510 1506 1502 1497 1492 1488 1485 1482 1478 1476 1472 1470 1470 1471 1475 1481 1476 1470 1474 1483 1479 1493 1497 1505 1511 1519 1526 1535 1545 1552 1557 1570 1576 1582 1585 1591 1595 1597 1600 1604
1514 1512 1510 1506 1500 1495 1490 1486 1483 1480 1476 1474 1472 1469 1466 1466 1466 1465 1465 1462 1475 1477 1462 1468 1480 1487 1498 1506 1510 1520 1531 1541 1547 1553 1563 1573 1584 1587 1592 1596 1598 1600 1603
1511 1507 1503 1498 1492 1489 1484 1480 1477 1473 1470 1468 1466 1463 1461 1460 1462 1462 1459 1458 1458 1466 1472 1472 1473 1477 1491 1496 1506 1516 1523 1533 1544 1550 1552 1566 1574 1581 1589 1593 1596 1599 1603
1506 1502 1498 1492 1486 1483 1478 1473 1469 1467 1464 1461 1459 1458 1456 1454 1455 1456 1456 1456 1457 1465 1464 1464 1463 1470 1483 1489 1501 1512 1517 1526 1536 1547 1552 1553 1558 1566 1583 1590 1594 1597 1601
1503 1498 1493 1485 1481 1476 1470 1465 1461 1458 1457 1454 1452 1450 1449 1449 1449 1451 1451 1451 1450 1451 1460 1456 1461 1464 1473 1484 1494 1506 1514 1522 1531 1537 1544 1552 1558 1563 1566 1578 1588 1594 1599
1498 1493 1486 1479 1473 1468 1463 1458 1453 1449 1447 1446 1443 1443 1442 1442 1441 1446 1447 1449 1453 1454 1455 1454 1460 1464 1469 1476 1488 1502 1510 1518 1528 1534 1540 1544 1547 1556 1562 1572 1582 1587 1595
1490 1485 1479 1472 1465 1460 1454 1449 1446 1441 1438 1437 1435 1434 1433 1434 1433 1435 1439 1442 1439 1443 1452 1450 1458 1461 1467 1471 1483 1496 1506 1516 1523 1530 1537 1544 1548 1553 1559 1567 1575 1582 1590
1484 1476 1469 1463 1457 1451 1447 1442 1435 1431 1430 1426 1424 1423 1423 1424 1425 1425 1425 1429 1434 1436 1439 1447 1450 1459 1465 1467 1479 1492 1501 1511 1519 1526 1534 1538 1545 1550 1553 1558 1565 1580 1587
1478 1470 1463 1455 1446 1440 1435 1431 1426 1419 1418 1416 1413 1410 1412 1413 1414 1416 1417 1418 1420 1424 1430 1438 1449 1453 1459 1464 1476 1485 1495 1506 1514 1523 1530 1536 1541 1546 1552 1558 1561 1563 1574
1467 1459 1451 1443 1436 1429 1422 1417 1414 1408 1403 1404 1403 1401 1402 1404 1405 1406 1406 1410 1415 1419 1425 1433 1441 1448 1454 1461 1471 1481 1491 1500 1509 1518 1526 1533 1538 1544 1550 1555 1561 1565 1568
1455 1447 1438 1432 1425 1419 1412 1405 1400 1395 1390 1389 1390 1390 1390 1392 1395 1397 1399 1402 1407 1413 1418 1426 1437 1443 1450 1457 1467 1476 1484 1494 1503 1513 1521 1529 1534 1540 1546 1552 1557 1561 1565
1448 1435 1425 1419 1412 1405 1399 1391 1386 1381 1377 1374 1374 1375 1377 1381 1384 1388 1392 1397 1400 1407 1413 1418 1431 1438 1444 1452 1463 1470 1477 1487 1498 1506 1517 1524 1531 1537 1543 1547 1552 1555 1561
1433 1424 1415 1406 1399 1391 1384 1377 1371 1366 1363 1361 1361 1362 1365 1369 1374 1380 1385 1390 1395 1401 1408 1415 1422 1433 1440 1447 1458 1466 1472 1482 1492 1501 1510 1518 1526 1532 1538 1544 1548 1551 1557
1425 1412 1403 1395 1386 1378 1369 1362 1356 1352 1349 1347 1347 1350 1354 1359 1364 1371 1378 1382 1389 1395 1401 1406 1415 1427 1436 1442 1452 1461 1468 1477 1487 1496 1506 1513 1520 1526 1532 1538 1543 1546 1552
1414 1404 1392 1380 1371 1362 1354 1348 1343 1338 1336 1334 1334 1337 1344 1350 1356 1361 1370 1376 1382 1388 1394 1401 1410 1421 1429 1437 1446 1457 1464 1472 1482 1493 1501 1509 1516 1523 1528 1532 1537 1541 1548
1407 1393 1382 1371 1359 1349 1340 1334 1328 1324 1323 1322 1322 1327 1333 1340 1347 1353 1362 1370 1375 1381 1388 1394 1403 1415 1422 1431 1438 1451 1459 1468 1477 1487 1496 1504 1512 1520 1525 1530 1535 1539 1542
1402 1387 1375 1361 1348 1336 1328 1320 1313 1309 1309 1309 1312 1318 1324 1332 1339 1346 1354 1362 1369 1377 1383 1391 1398 1405 1415 1423 1433 1446 1455 1464 1472 1484 1491 1498 1507 1515 1520 1526 1532 1538 1543
1396 1382 1369 1354 1341 1328 1315 1306 1300 1296 1297 1298 1304 1310 1317 1324 1333 1340 1347 1355 1363 1371 1377 1384 1391 1400 1407 1416 1429 1442 1453 1463 1470 1479 1487 1492 1501 1510 1515 1521 1526 1533 1538
1393 1379 1366 1351 1334 1320 1307 1297 1287 1285 1288 1292 1298 1305 1312 1320 1328 1336 1343 1350 1359 1365 1371 1379 1387 1393 1399 1415 1425 1437 1447 1456 1463 1473 1481 1488 1496 1504 1510 1516 1521 1529 1535
1386 1372 1358 1345 1329 1314 1302 1291 1284 1282 1285 1289 1296 1303 1309 1318 1324 1335 1341 1347 1354 1362 1368 1376 1384 1393 1398 1409 1422 1432 1440 1448 1457 1466 1475 1482 1491 1498 1505 1511 1517 1523 1529
1382 1367 1351 1340 1325 1312 1299 1291 1287 1287 1288 1292 1297 1303 1310 1318 1325 1333 1340 1347 1354 1360 1367 1374 1382 1388 1395 1406 1418 1427 1432 1439 1449 1458 1467 1476 1485 1493 1500 1507 1512 1518 1526
1373 1361 1346 1332 1320 1312 1302 1292 1288 1289 1290 1295 1300 1305 1312 1319 1325 1332 1339 1345 1354 1358 1364 1372 1378 1385 1395 1404 1413 1420 1427 1435 1443 1452 1462 1471 1479 1487 1496 1502 1508 1516 1523
1381 1365 1350 1334 1322 1309 1300 1291 1288 1288 1292 1297 1302 1307 1313 1319 1325 1332 1337 1345 1352 1358 1362 1368 1373 1380 1391 1399 1407 1415 1422 1430 1438 1447 1456 1466 1473 1482 1490 1497 1504 1510 1517
1382 1365 1352 1337 1325 1314 1303 1296 1294 1295 1297 1301 1305 1310 1316 1321 1327 1332 1337 1342 1346 1355 1359 1365 1371 1377 1386 1394 1402 1411 1419 1427 1436 1441 1450 1458 1467 1477 1484 1490 1497 1505 1510
1385 1370 1356 1345 1333 1320 1310 1303 1302 1302 1304 1306 1308 1313 1318 1321 1326 1335 1340 1344 1347 1354 1358 1363 1366 1374 1382 1390 1399 1404 1413 1419 1427 1435 1445 1449 1457 1465 1473 1482 1488 1496 1502
1389 1371 1360 1348 1335 1325 1315 1309 1306 1307 1309 1311 1313 1316 1320 1323 1327 1333 1338 1343 1347 1352 1359 1364 1371 1378 1386 1391 1397 1403 1409 1415 1422 1428 1435 1442 1450 1457 1465 1473 1479 1486 1493